• In India
  • List of Countries
  • For 7 days
  • Water Temperature
  • Satellite Maps
  • Weather Map
  • Weather Widgets
  • user-avatar
    Login

    Hourly Weather Mieczkow

    Today, 16 July, Monday

    Time Temperature Precipitation Wind Pressure Humidity
    00:00 +18°C° 0 mm 1 mps 746 mmHg 73%
    01:00 +17°C° 0 mm 2 mps 746 mmHg 72%
    02:00 +16°C° 0 mm 1 mps 746 mmHg 74%
    03:00 +16°C° 0 mm 1 mps 746 mmHg 76%
    04:00 +15°C° 0 mm 1 mps 746 mmHg 78%
    05:00 +18°C° 0 mm 1 mps 746 mmHg 75%
    06:00 +20°C° 0 mm 1 mps 746 mmHg 72%
    07:00 +21°C° 0 mm 1 mps 746 mmHg 68%
    08:00 +23°C° 0 mm 2 mps 746 mmHg 64%
    09:00 +24°C° 0 mm 2 mps 746 mmHg 59%
    10:00 +26°C° 0 mm 3 mps 745 mmHg 55%
    11:00 +27°C° 0 mm 3 mps 745 mmHg 52%
    12:00 +27°C° 0 mm 3 mps 745 mmHg 49%
    13:00 +28°C° 0 mm 3 mps 744 mmHg 46%
    14:00 +28°C° 0.1 mm 3 mps 744 mmHg 47%
    15:00 +28°C° 0.1 mm 3 mps 744 mmHg 47%
    16:00 +28°C° 0.1 mm 3 mps 744 mmHg 48%
    17:00 +27°C° 0.1 mm 2 mps 743 mmHg 54%
    18:00 +25°C° 0.1 mm 2 mps 743 mmHg 60%
    19:00 +24°C° 0.1 mm 1 mps 743 mmHg 66%
    20:00 +23°C° 0.4 mm 1 mps 743 mmHg 70%
    21:00 +22°C° 0.4 mm 1 mps 743 mmHg 74%
    22:00 +20°C° 0.4 mm 1 mps 743 mmHg 78%
    23:00 +19°C° 0.3 mm 2 mps 743 mmHg 81%

    Tomorrow, 17 July, Tuesday

    Time Temperature Precipitation Wind Pressure Humidity
    00:00 +18°C° 0.3 mm 2 mps 743 mmHg 84%
    01:00 +17°C° 0.3 mm 2 mps 743 mmHg 88%
    02:00 +17°C° 0 mm 2 mps 743 mmHg 89%
    03:00 +17°C° 0 mm 2 mps 742 mmHg 91%
    04:00 +17°C° 0 mm 2 mps 742 mmHg 92%
    05:00 +18°C° 0 mm 3 mps 742 mmHg 89%
    06:00 +19°C° 0 mm 4 mps 742 mmHg 87%
    07:00 +20°C° 0 mm 5 mps 742 mmHg 84%
    08:00 +20°C° 0.5 mm 5 mps 742 mmHg 83%
    09:00 +20°C° 0.5 mm 5 mps 742 mmHg 83%
    10:00 +20°C° 0.5 mm 6 mps 742 mmHg 82%
    11:00 +20°C° 0.6 mm 6 mps 742 mmHg 82%
    12:00 +20°C° 0.6 mm 6 mps 742 mmHg 83%
    13:00 +20°C° 0.6 mm 7 mps 742 mmHg 83%
    14:00 +20°C° 0.2 mm 7 mps 742 mmHg 83%
    15:00 +20°C° 0.2 mm 7 mps 742 mmHg 83%
    16:00 +20°C° 0.2 mm 7 mps 742 mmHg 82%
    17:00 +19°C° 0.1 mm 6 mps 742 mmHg 84%
    18:00 +19°C° 0.1 mm 6 mps 742 mmHg 85%
    19:00 +17°C° 0.1 mm 5 mps 742 mmHg 86%
    20:00 +17°C° 0 mm 5 mps 742 mmHg 88%
    21:00 +17°C° 0 mm 5 mps 742 mmHg 90%
    22:00 +17°C° 0 mm 4 mps 742 mmHg 91%
    23:00 +16°C° 0 mm 5 mps 742 mmHg 91%

    Day after tomorrow, 18 July, Wednesday

    Time Temperature Precipitation Wind Pressure Humidity
    00:00 +16°C° 0 mm 5 mps 742 mmHg 92%
    01:00 +16°C° 0 mm 5 mps 742 mmHg 92%
    02:00 +16°C° 0.1 mm 5 mps 742 mmHg 92%
    03:00 +16°C° 0.1 mm 5 mps 742 mmHg 92%
    04:00 +16°C° 0.1 mm 6 mps 742 mmHg 92%
    05:00 +17°C° 0.2 mm 6 mps 742 mmHg 90%
    06:00 +17°C° 0.2 mm 6 mps 743 mmHg 89%
    07:00 +17°C° 0.2 mm 6 mps 743 mmHg 87%
    08:00 +19°C° 0.7 mm 6 mps 743 mmHg 84%
    09:00 +20°C° 0.7 mm 6 mps 743 mmHg 80%
    10:00 +21°C° 0.7 mm 6 mps 743 mmHg 76%
    11:00 +21°C° 0.9 mm 6 mps 743 mmHg 75%
    12:00 +22°C° 0.9 mm 6 mps 743 mmHg 75%
    13:00 +22°C° 0.9 mm 5 mps 743 mmHg 74%
    14:00 +22°C° 0.7 mm 5 mps 743 mmHg 75%
    15:00 +22°C° 0.7 mm 4 mps 743 mmHg 75%
    16:00 +22°C° 0.7 mm 4 mps 743 mmHg 75%
    17:00 +22°C° 0.3 mm 4 mps 744 mmHg 78%
    18:00 +21°C° 0.3 mm 4 mps 744 mmHg 80%
    19:00 +20°C° 0.3 mm 4 mps 744 mmHg 83%
    20:00 +20°C° 0.1 mm 3 mps 744 mmHg 85%
    21:00 +19°C° 0.1 mm 3 mps 744 mmHg 87%
    22:00 +19°C° 0.1 mm 3 mps 745 mmHg 89%
    23:00 +18°C° 0.1 mm 3 mps 745 mmHg 90%

    19 July, Thursday

    Time Temperature Precipitation Wind Pressure Humidity
    00:00 +18°C° 0.1 mm 4 mps 745 mmHg 91%
    01:00 +18°C° 0.1 mm 4 mps 745 mmHg 91%
    02:00 +18°C° 0.2 mm 4 mps 745 mmHg 92%
    03:00 +17°C° 0.2 mm 4 mps 745 mmHg 92%
    04:00 +16°C° 0.2 mm 5 mps 745 mmHg 92%
    05:00 +17°C° 0.3 mm 5 mps 745 mmHg 91%
    06:00 +17°C° 0.3 mm 5 mps 745 mmHg 89%
    07:00 +17°C° 0.3 mm 5 mps 745 mmHg 88%
    08:00 +19°C° 0.5 mm 5 mps 745 mmHg 85%
    09:00 +19°C° 0.5 mm 5 mps 745 mmHg 83%
    10:00 +20°C° 0.5 mm 5 mps 745 mmHg 80%
    11:00 +21°C° 0.5 mm 5 mps 745 mmHg 77%
    12:00 +21°C° 0.5 mm 5 mps 745 mmHg 74%
    13:00 +22°C° 0.5 mm 4 mps 745 mmHg 71%
    14:00 +23°C° 0.1 mm 4 mps 745 mmHg 69%
    15:00 +23°C° 0.1 mm 4 mps 745 mmHg 67%
    16:00 +25°C° 0.1 mm 4 mps 746 mmHg 65%
    17:00 +24°C° 0 mm 3 mps 746 mmHg 70%
    18:00 +22°C° 0 mm 3 mps 746 mmHg 74%
    19:00 +21°C° 0 mm 2 mps 746 mmHg 78%
    20:00 +20°C° 0 mm 2 mps 746 mmHg 81%
    21:00 +19°C° 0 mm 2 mps 746 mmHg 84%
    22:00 +18°C° 0 mm 2 mps 746 mmHg 87%
    23:00 +17°C° 0 mm 2 mps 746 mmHg 87%

    20 July, Friday

    Time Temperature Precipitation Wind Pressure Humidity
    00:00 +17°C° 0 mm 2 mps 746 mmHg 87%
    01:00 +16°C° 0 mm 2 mps 746 mmHg 88%
    02:00 +16°C° 0 mm 2 mps 746 mmHg 87%
    03:00 +15°C° 0 mm 2 mps 746 mmHg 87%
    04:00 +15°C° 0 mm 2 mps 746 mmHg 87%
    05:00 +16°C° 0 mm 3 mps 746 mmHg 82%
    06:00 +17°C° 0 mm 3 mps 746 mmHg 76%
    07:00 +18°C° 0 mm 3 mps 746 mmHg 71%
    08:00 +20°C° 0 mm 3 mps 746 mmHg 63%
    09:00 +22°C° 0 mm 3 mps 746 mmHg 56%
    10:00 +24°C° 0 mm 3 mps 746 mmHg 49%
    11:00 +25°C° 0 mm 3 mps 746 mmHg 46%
    12:00 +26°C° 0 mm 3 mps 745 mmHg 43%
    13:00 +27°C° 0 mm 2 mps 745 mmHg 39%
    14:00 +27°C° 0 mm 2 mps 745 mmHg 39%
    15:00 +27°C° 0 mm 2 mps 745 mmHg 39%
    16:00 +27°C° 0 mm 2 mps 744 mmHg 39%
    17:00 +26°C° 0 mm 2 mps 744 mmHg 45%
    18:00 +25°C° 0 mm 1 mps 744 mmHg 51%
    19:00 +23°C° 0 mm 1 mps 744 mmHg 57%
    20:00 +22°C° 0 mm 1 mps 744 mmHg 60%
    21:00 +20°C° 0 mm 1 mps 744 mmHg 64%
    22:00 +19°C° 0 mm 1 mps 744 mmHg 67%
    23:00 +18°C° 0 mm 1 mps 744 mmHg 69%

    21 July, Saturday

    Time Temperature Precipitation Wind Pressure Humidity
    00:00 +18°C° 0 mm 1 mps 744 mmHg 71%
    01:00 +16°C° 0 mm 1 mps 744 mmHg 73%
    02:00 +16°C° 0 mm 1 mps 744 mmHg 73%
    03:00 +16°C° 0 mm 1 mps 744 mmHg 74%
    04:00 +15°C° 0 mm 1 mps 744 mmHg 75%
    05:00 +18°C° 0 mm 1 mps 744 mmHg 71%
    06:00 +20°C° 0 mm 1 mps 744 mmHg 66%
    07:00 +22°C° 0 mm 1 mps 744 mmHg 62%
    08:00 +23°C° 0 mm 1 mps 744 mmHg 58%
    09:00 +24°C° 0 mm 1 mps 744 mmHg 54%
    10:00 +26°C° 0 mm 1 mps 744 mmHg 51%
    11:00 +26°C° 0 mm 1 mps 744 mmHg 49%
    12:00 +27°C° 0 mm 1 mps 743 mmHg 47%
    13:00 +27°C° 0 mm 1 mps 743 mmHg 46%
    14:00 +27°C° 0 mm 1 mps 743 mmHg 46%
    15:00 +27°C° 0 mm 1 mps 743 mmHg 47%
    16:00 +27°C° 0 mm 1 mps 742 mmHg 48%
    17:00 +26°C° 0 mm 1 mps 742 mmHg 54%
    18:00 +25°C° 0 mm 2 mps 742 mmHg 60%
    19:00 +24°C° 0 mm 2 mps 742 mmHg 65%
    20:00 +22°C° 0 mm 1 mps 743 mmHg 69%
    21:00 +21°C° 0 mm 1 mps 743 mmHg 72%
    22:00 +20°C° 0 mm 1 mps 743 mmHg 75%
    23:00 +19°C° 0 mm 1 mps 743 mmHg 77%
    Show more